NOAA 16 DEB, 41229

Orbit data source: Space-Track

NOAA 16 DEB, 41229 is space debris in SSO originally from a launch on Thu, 21 Sep 2000 UTC launched from the Air Force Western Test Range (AFWTR). Debris objects in space refer to the collection of defunct objects orbiting the Earth. Examples of debris include non-operational satellites, rocket bodies, and fragments generated from explosions, collisions, or faulty payload assembly.

Loading next visibility...
Identifier
41229, 2000-055EJ
Orbit
SSO
Country
Flag of USUS
Related business
Manufacturer
Unknown
Mission
Spacecraft
Bus & Motor
Unknown
Mass
Unknown
Launch date (UTC)
2000-09-21 (25 years ago)
Launch vehicle
Unknown
Launch site
Air Force Western Test Range (AFWTR)
Object type
Payload
Rocket body
Debris
Shape & HBR
Unknown shape, 0.1 m
Radar Cross Section
Small (<0.1 m²)

Expand to show TLE details & history
Last TLE update: 2 days ago

TLE from 2 days ago
0 NOAA 16 DEB
1 41229U 00055EJ  25353.85329218  .00004197  00000-0  18718-2 0  9992
2 41229  98.9198  43.8170 0058156  40.8125 319.7386 14.22406753514148
Epoch: 2025-12-19T20:28Z
TLE epoch observation values (Epoch: 2025-12-19T20:28:44.444Z)
Latitude
-0.00003°
Longitude
7.94333°
Altitude
788.299 km
Speed
7.476 km/s
True Right ascension
02h 55m 16s
True Declination
0° 00' 00"
Sunlit
Object was in full shadow at epoch
Visualization orbit readout
Latitude
Unknown
Longitude
Unknown
Altitude
Unknown
Speed
Unknown
Apparent Right ascension
Unknown
Apparent Declination
Unknown
Sunlit
N/A
Visualization observer readout
Local Sidereal Time
14:43:57
Azimuth
Unknown
Elevation
Unknown
Doppler factor
Unknown
Orbital elements
Apogee altitude
856.219 km
Perigee altitude
772.561 km
Semi-major axis
7,192.527 km
Eccentricity
0.00582
Inclination
98.9198°
RAAN
43.817°
Arg. of periapsis
40.8125°
True anomaly
319.30551°
Mean anomaly
319.7386°
Eccentric anomaly
319.5223°
Mean motion
3.55812 °/min
Orbital period
101.18 mins
BSTAR
0.0018718
Loading maneuver chart data...
Computing Atmospheric mass density...
Loading historical data...
Loading historical data...
Loading historical data...
Loading historical data...
Loading historical data...
Loading historical data...
Loading historical data...

Documentation

Showing up to 5 results
|